STARLINK-32871, 62924

Orbit data source: Space-Track

STARLINK-32871, 62924 is a payload satellite owned by SpaceX/Seattle (US) in LEO that was launched on Sat, 08 Feb 2025 UTC via an FALCON 9 launch vehicle from the Air Force Eastern Test Range (AFETR). Payload-class satellites include a variety of spacecraft equipped with specific instruments for various scientific and technological missions. These include communications satellites like Starlink; space stations such as the ISS; scientific satellites like the Hubble; Earth observation satellites from companies like Planet Labs, Umbra, and HawkEye 360; GPS; miniature CubeSats for education and research; and military/defense satellites.

Loading next visibility...
Identifier
62924, 2025-027T
Orbit
LEO
Last TLE update
12 hours ago
Origin
Manufacturer
SpaceX/Seattle
Mission
Operational Commercial Communications
Bus & Motor
STARLINK V2M, Unknown motor
Mass
730 kg wet, ~700 kg dry
Launch date (UTC)
2025-02-08 (5 months ago)
Launch vehicle
FALCON 9
Launch site
Air Force Eastern Test Range (AFETR)
Object type
Payload
Rocket body
Debris
Shape & HBR
Box + 2 Pan, 14.5 m
Radar Cross Section
33.884 m², Large (>1 m²)

Expand to show TLE details & history

TLE from 12 hours ago
0 STARLINK-32871
1 62924U 25027T   25199.48441607  .00022661  00000-0  82995-3 0  9992
2 62924  43.0021  11.5286 0001704 266.8864  93.1792 15.27600422 25726
Epoch: 2025-07-18T11:37Z
TLE epoch observation values (Epoch: 2025-07-18T11:37:33.548Z)
Latitude
-0.00007°
Longitude
-99.39646°
Altitude
482.829 km
Speed
7.626 km/s
True Right ascension
00h 46m 06s
True Declination
0° 00' 00"
Sunlit
Object was in daylight at epoch
Visualization orbit readout
Latitude
-41.57723°
Longitude
148.8425°
Altitude
494.483 km
Speed
7.619 km/s
Apparent Right ascension
20h 47m 18s
Apparent Declination
-55° 32' 56"
Sunlit
Object is in full shadow
Visualization observer readout
Local Sidereal Time
12:31:12
Azimuth
132.482° SE
Elevation
-50.525°
Doppler factor
1
Orbital elements
Apogee altitude
486.102 km
Perigee altitude
483.763 km
Semi-major axis
6,863.07 km
Eccentricity
0.00017
Inclination
43.0021°
RAAN
11.5286°
Arg. of periapsis
266.8864°
True anomaly
93.1987°
Mean anomaly
93.1792°
Eccentric anomaly
93.18895°
Mean motion
3.81738 °/min
Orbital period
94.31 mins
BSTAR
0.00082995
Loading maneuver chart data...
Loading SW <> Apogee altitude chart data...
Loading historical data...
Loading historical data...
Loading historical data...
Loading historical data...
Loading historical data...
Loading historical data...
Loading historical data...
|